| time (UTC) | temp C | wind direction | speed KPH | gust KPH | rain 1hr cm | rain 24hr cm | rain mn cm | humidity % | barometer mb |
| 20260903105502 | 24 | 283 | 8.0 | 24.1 | 0.00 | 0.00 | 0.00 | 1 | 1016.5 |
| 20260903104432 | 23 | 244 | 11.3 | 24.1 | 0.00 | 0.00 | 0.00 | 1 | 1016.5 |
| 20260903103455 | 23 | 286 | 9.7 | 24.1 | 0.00 | 0.00 | 0.00 | 1 | 1016.4 |
| 20260903102434 | 23 | 273 | 11.3 | 30.6 | 0.00 | 0.00 | 0.00 | 1 | 1016.6 |
| 20260903101401 | 23 | 273 | 11.3 | 25.7 | 0.00 | 0.00 | 0.00 | 1 | 1016.7 |
| 20260903094122 | 22 | 288 | 12.9 | 27.4 | 0.00 | 0.00 | 0.00 | 1 | 1016.9 |
| 20260903093109 | 22 | 272 | 9.7 | 25.7 | 0.00 | 0.00 | 0.00 | 1 | 1016.9 |
| 20260903092132 | 22 | 274 | 11.3 | 25.7 | 0.00 | 0.00 | 0.00 | 1 | 1016.9 |
| 20260903091147 | 22 | 290 | 11.3 | 25.7 | 0.00 | 0.00 | 0.00 | 1 | 1016.7 |
| 20260903090136 | 22 | 226 | 11.3 | 25.7 | 0.00 | 0.00 | 0.00 | 1 | 1016.6 |
| 20260903085148 | 21 | 248 | 11.3 | 24.1 | 0.00 | 0.00 | 0.00 | 1 | 1016.3 |
| 20260903084153 | 21 | 245 | 11.3 | 24.1 | 0.00 | 0.00 | 0.00 | 1 | 1016.2 |
| 20260903083137 | 21 | 284 | 9.7 | 22.5 | 0.00 | 0.00 | 0.00 | 1 | 1016.3 |
| 20260903082107 | 21 | 259 | 9.7 | 22.5 | 0.00 | 0.00 | 0.00 | 1 | 1016.1 |
| 20260903081114 | 21 | 257 | 9.7 | 24.1 | 0.00 | 0.00 | 0.00 | 1 | 1015.9 |
| 20260903074922 | 20 | 254 | 11.3 | 22.5 | 0.00 | 0.00 | 0.00 | 1 | 1015.8 |
| 20260903073915 | 20 | 244 | 8.0 | 22.5 | 0.00 | 0.00 | 0.00 | 1 | 1015.7 |
| 20260903072841 | 20 | 244 | 9.7 | 19.3 | 0.00 | 0.00 | 0.00 | 1 | 1015.8 |
| 20260903070732 | 20 | 240 | 8.0 | 22.5 | 0.00 | 0.00 | 0.00 | 1 | 1016.0 |
| 20260903065741 | 20 | 267 | 6.4 | 22.5 | 0.00 | 0.00 | 0.00 | 1 | 1016.1 |
| 20260903064804 | 19 | 261 | 6.4 | 19.3 | 0.00 | 0.00 | 0.00 | 1 | 1016.0 |
| 20260903063808 | 19 | 240 | 8.0 | 24.1 | 0.00 | 0.00 | 0.00 | 1 | 1016.0 |
| 20260903061654 | 19 | 254 | 4.8 | 16.1 | 0.00 | 0.00 | 0.00 | 1 | 1015.8 |
| 20260903060711 | 19 | 255 | 6.4 | 14.5 | 0.00 | 0.00 | 0.00 | 1 | 1015.6 |
| 20260903055637 | 18 | 255 | 3.2 | 12.9 | 0.00 | 0.00 | 0.00 | 1 | 1015.6 |
| 20260903054630 | 18 | 262 | 4.8 | 12.9 | 0.00 | 0.00 | 0.00 | 1 | 1015.6 |
| 20260903053641 | 18 | 275 | 6.4 | 14.5 | 0.00 | 0.00 | 0.00 | 1 | 1015.7 |
| 20260903052611 | 18 | 247 | 4.8 | 20.9 | 0.00 | 0.00 | 0.00 | 1 | 1015.6 |
| 20260903051548 | 19 | 244 | 9.7 | 20.9 | 0.00 | 0.00 | 0.00 | 1 | 1015.3 |
| 20260903050532 | 19 | 246 | 8.0 | 20.9 | 0.00 | 0.00 | 0.00 | 1 | 1015.3 |
| 20260903045458 | 19 | 268 | 6.4 | 20.9 | 0.00 | 0.00 | 0.00 | 1 | 1015.2 |
| 20260903044455 | 19 | 266 | 6.4 | 20.9 | 0.00 | 0.00 | 0.00 | 1 | 1015.3 |
| 20260903042331 | 19 | 267 | 6.4 | 25.7 | 0.00 | 0.00 | 0.00 | 1 | 1014.9 |
| 20260903041316 | 19 | 235 | 8.0 | 25.7 | 0.00 | 0.00 | 0.00 | 1 | 1014.7 |
| 20260903040243 | 19 | 250 | 9.7 | 24.1 | 0.00 | 0.00 | 0.00 | 1 | 1014.7 |
| 20260903035243 | 19 | 273 | 8.0 | 22.5 | 0.00 | 0.00 | 0.00 | 1 | 1015.0 |
| 20260903033104 | 19 | 273 | 9.7 | 25.7 | 0.00 | 0.00 | 0.00 | 1 | 1015.0 |
| 20260903032046 | 19 | 265 | 11.3 | 25.7 | 0.00 | 0.00 | 0.00 | 1 | 1014.8 |
| 20260903031019 | 19 | 223 | 9.7 | 22.5 | 0.00 | 0.00 | 0.00 | 1 | 1014.6 |
| 20260903030007 | 19 | 255 | 11.3 | 24.1 | 0.00 | 0.00 | 0.00 | 1 | 1014.8 |
| 20260903024953 | 19 | 269 | 11.3 | 24.1 | 0.00 | 0.00 | 0.00 | 1 | 1015.0 |
| 20260903023923 | 19 | 252 | 12.9 | 27.4 | 0.00 | 0.00 | 0.00 | 1 | 1014.9 |
| 20260903022941 | 19 | 250 | 11.3 | 29.0 | 0.00 | 0.00 | 0.00 | 1 | 1014.9 |
| 20260903021934 | 19 | 254 | 11.3 | 29.0 | 0.00 | 0.00 | 0.00 | 1 | 1014.9 |
| 20260903020959 | 19 | 236 | 11.3 | 24.1 | 0.00 | 0.00 | 0.00 | 1 | 1015.0 |
| 20260903015945 | 19 | 263 | 11.3 | 29.0 | 0.00 | 0.00 | 0.00 | 1 | 1015.0 |
| 20260903014939 | 19 | 217 | 11.3 | 29.0 | 0.00 | 0.00 | 0.00 | 1 | 1015.2 |
| 20260903013954 | 19 | 264 | 11.3 | 25.7 | 0.00 | 0.00 | 0.00 | 1 | 1015.1 |
| 20260903013011 | 19 | 240 | 11.3 | 25.7 | 0.00 | 0.00 | 0.00 | 1 | 1015.2 |
| 20260903012014 | 19 | 267 | 9.7 | 24.1 | 0.00 | 0.00 | 0.00 | 1 | 1015.4 |
| 20260903005916 | 19 | 263 | 8.0 | 27.4 | 0.00 | 0.00 | 0.00 | 1 | 1015.5 |
| 20260903004856 | 19 | 254 | 8.0 | 25.7 | 0.00 | 0.00 | 0.00 | 1 | 1015.5 |
| 20260903003856 | 19 | 269 | 9.7 | 25.7 | 0.00 | 0.00 | 0.00 | 1 | 1015.5 |
| 20260903001710 | 19 | 274 | 8.0 | 20.9 | 0.00 | 0.00 | 0.00 | 1 | 1015.5 |
| 20260903000648 | 19 | 271 | 9.7 | 20.9 | 0.00 | 0.00 | 0.00 | 1 | 1015.4 |
| 20260902235701 | 19 | 241 | 9.7 | 22.5 | 0.00 | 0.00 | 0.00 | 1 | 1015.8 |
| 20260902234716 | 19 | 280 | 9.7 | 22.5 | 0.00 | 0.00 | 0.00 | 1 | 1015.9 |
| 20260902233718 | 19 | 231 | 9.7 | 24.1 | 0.00 | 0.00 | 0.00 | 1 | 1016.0 |
| 20260902232706 | 19 | 294 | 9.7 | 24.1 | 0.00 | 0.00 | 0.00 | 1 | 1016.1 |
| 20260902231656 | 19 | 257 | 6.4 | 17.7 | 0.00 | 0.00 | 0.00 | 1 | 1016.1 |
| 20260902230716 | 19 | 211 | 6.4 | 14.5 | 0.00 | 0.00 | 0.00 | 1 | 1016.3 |
| 20260902225701 | 19 | 264 | 6.4 | 17.7 | 0.00 | 0.00 | 0.00 | 1 | 1016.2 |
| 20260902223532 | 18 | 246 | 9.7 | 25.7 | 0.00 | 0.00 | 0.00 | 1 | 1016.1 |
| 20260902222511 | 18 | 251 | 11.3 | 25.7 | 0.00 | 0.00 | 0.00 | 1 | 1016.0 |
| 20260902221456 | 18 | 232 | 11.3 | 22.5 | 0.00 | 0.00 | 0.00 | 1 | 1016.1 |
| 20260902220506 | 18 | 201 | 9.7 | 22.5 | 0.00 | 0.00 | 0.00 | 1 | 1016.1 |
| 20260902215447 | 18 | 250 | 9.7 | 22.5 | 0.00 | 0.00 | 0.00 | 1 | 1016.2 |
| 20260902214435 | 18 | 266 | 8.0 | 20.9 | 0.00 | 0.00 | 0.00 | 1 | 1016.2 |
| 20260902213438 | 18 | 233 | 8.0 | 20.9 | 0.00 | 0.00 | 0.00 | 1 | 1016.3 |
| 20260902212403 | 18 | 238 | 6.4 | 16.1 | 0.00 | 0.00 | 0.00 | 1 | 1016.3 |
| 20260902211402 | 18 | 246 | 8.0 | 17.7 | 0.00 | 0.00 | 0.00 | 1 | 1016.4 |
| 20260902210351 | 18 | 228 | 6.4 | 22.5 | 0.00 | 0.00 | 0.00 | 1 | 1016.4 |
| 20260902205334 | 18 | 236 | 9.7 | 22.5 | 0.00 | 0.00 | 0.00 | 1 | 1016.5 |
| 20260902204334 | 18 | 218 | 9.7 | 22.5 | 0.00 | 0.00 | 0.00 | 1 | 1016.3 |
| 20260902203330 | 19 | 225 | 9.7 | 22.5 | 0.00 | 0.00 | 0.00 | 1 | 1016.3 |
| 20260902202333 | 19 | 223 | 9.7 | 24.1 | 0.00 | 0.00 | 0.00 | 1 | 1016.4 |
| 20260902200200 | 19 | 231 | 11.3 | 29.0 | 0.00 | 0.00 | 0.00 | 1 | 1016.4 |
| 20260902195150 | 19 | 251 | 11.3 | 29.0 | 0.00 | 0.00 | 0.00 | 1 | 1016.4 |
| 20260902194134 | 19 | 271 | 9.7 | 29.0 | 0.00 | 0.00 | 0.00 | 1 | 1016.3 |
| 20260902193137 | 18 | 232 | 9.7 | 29.0 | 0.00 | 0.00 | 0.00 | 1 | 1016.6 |
| 20260902192103 | 18 | 221 | 8.0 | 29.0 | 0.00 | 0.00 | 0.00 | 1 | 1016.6 |
| 20260902191102 | 18 | 226 | 9.7 | 22.5 | 0.00 | 0.00 | 0.00 | 1 | 1016.6 |
| 20260902190044 | 19 | 224 | 9.7 | 27.4 | 0.00 | 0.00 | 0.00 | 1 | 1016.6 |
| 20260902185037 | 19 | 229 | 12.9 | 27.4 | 0.00 | 0.00 | 0.00 | 1 | 1016.6 |
| 20260902184012 | 19 | 168 | 11.3 | 27.4 | 0.00 | 0.00 | 0.00 | 1 | 1016.7 |
| 20260902181858 | 20 | 224 | 9.7 | 32.2 | 0.00 | 0.00 | 0.00 | 1 | 1016.7 |
| 20260902180846 | 20 | 265 | 14.5 | 32.2 | 0.00 | 0.00 | 0.00 | 1 | 1016.7 |
| 20260902172415 | 21 | 201 | 11.3 | 30.6 | 0.00 | 0.00 | 0.00 | 1 | 1016.7 |
| 20260902165047 | 20 | 251 | 16.1 | 40.2 | 0.00 | 0.00 | 0.00 | 1 | 1017.1 |
| 20260902162856 | 21 | 237 | 11.3 | 22.5 | 0.00 | 0.00 | 0.00 | 1 | 1017.1 |
| 20260902161913 | 21 | 201 | 11.3 | 24.1 | 0.00 | 0.00 | 0.00 | 1 | 1017.3 |
| 20260902160838 | 21 | 203 | 12.9 | 30.6 | 0.00 | 0.00 | 0.00 | 1 | 1017.1 |
| 20260902155803 | 22 | 254 | 11.3 | 32.2 | 0.00 | 0.00 | 0.00 | 1 | 1017.3 |
| 20260902154755 | 21 | 241 | 14.5 | 32.2 | 0.00 | 0.00 | 0.00 | 1 | 1017.3 |
| 20260902153807 | 22 | 177 | 9.7 | 27.4 | 0.00 | 0.00 | 0.00 | 1 | 1017.5 |
| 20260902152738 | 21 | 236 | 12.9 | 27.4 | 0.00 | 0.00 | 0.00 | 1 | 1017.6 |
| 20260902151802 | 21 | 210 | 9.7 | 25.7 | 0.00 | 0.00 | 0.00 | 3 | 1017.7 |
| 20260902150728 | 21 | 224 | 11.3 | 25.7 | 0.00 | 0.00 | 0.00 | 1 | 1017.8 |
| 20260902145752 | 21 | 252 | 8.0 | 25.7 | 0.00 | 0.00 | 0.00 | 1 | 1017.9 |
| 20260902142501 | 21 | 261 | 9.7 | 24.1 | 0.00 | 0.00 | 0.00 | 1 | 1018.1 |
| 20260902140344 | 21 | 265 | 14.5 | 32.2 | 0.00 | 0.00 | 0.00 | 1 | 1018.1 |
| 20260902135346 | 22 | 248 | 12.9 | 27.4 | 0.00 | 0.00 | 0.00 | 1 | 1018.1 |
| 20260902134406 | 22 | 265 | 12.9 | 27.4 | 0.00 | 0.00 | 0.00 | 1 | 1018.1 |
| 20260902133412 | 21 | 205 | 12.9 | 27.4 | 0.00 | 0.00 | 0.00 | 1 | 1018.2 |
| 20260902132419 | 21 | 258 | 8.0 | 17.7 | 0.00 | 0.00 | 0.00 | 1 | 1018.3 |
| 20260902131416 | 21 | 241 | 6.4 | 17.7 | 0.00 | 0.00 | 0.00 | 1 | 1018.4 |
| 20260902130404 | 21 | 228 | 6.4 | 17.7 | 0.00 | 0.00 | 0.00 | 1 | 1018.5 |
| 20260902125428 | 21 | 257 | 6.4 | 16.1 | 0.00 | 0.00 | 0.00 | 1 | 1018.5 |
| 20260902123335 | 20 | 268 | 6.4 | 16.1 | 0.00 | 0.00 | 0.00 | 1 | 1018.8 |
| 20260902122332 | 20 | 314 | 6.4 | 17.7 | 0.00 | 0.00 | 0.00 | 1 | 1018.9 |
| 20260902121351 | 19 | 273 | 8.0 | 19.3 | 0.00 | 0.00 | 0.00 | 1 | 1018.9 |
| 20260902120323 | 19 | 263 | 9.7 | 19.3 | 0.00 | 0.00 | 0.00 | 1 | 1019.1 |
| 20260902115342 | 20 | 240 | 6.4 | 25.7 | 0.00 | 0.00 | 0.00 | 1 | 1019.0 |
| 20260902114326 | 20 | 210 | 9.7 | 25.7 | 0.00 | 0.00 | 0.00 | 1 | 1019.0 |
| 20260902112204 | 21 | 256 | 9.7 | 22.5 | 0.00 | 0.00 | 0.00 | 1 | 1018.9 |
| 20260902111202 | 21 | 255 | 8.0 | 22.5 | 0.00 | 0.00 | 0.00 | 1 | 1019.1 |
| 20260902110213 | 21 | 250 | 8.0 | 19.3 | 0.00 | 0.00 | 0.00 | 1 | 1019.1 |